User: anonymous   Login
Location: SAPM � Hemmingford
(45.0500°N, 73.5833°W)
Time: 20:46:45
(UTC-04:00)
Language:

Cosmos 1674 Rocket - Orbit

View from above orbital plane
View from above orbital plane
View from above satellite
View from above satellite

Ground track
Ground track

The orbit data is extracted from the following two-line orbital elements,

1 15945U 85069B   17084.80830393 +.00000101 +00000-0 +92325-5 0  9994
2 15945 082.5295 211.0927 0019430 193.0310 167.0406 14.83914145708664
Epoch (UTC): 25 March 2017 19:23:57
Eccentricity: 0.0019430
inclination: 82.5295°
perigee height: 603 km
apogee height: 630 km
right ascension of ascending node: 211.0927°
argument of perigee: 193.0310°
revolutions per day: 14.83914145
mean anomaly at epoch: 167.0406°
orbit number at epoch: 70866

The dashed part of the orbit path shows where the satellite is in the earth's shadow,  

DLR